This is the latest recevied weather packets stored in our database for station/object SP2CDN-10. If no packets are shown the sender has not sent any weather packets the latest 10 day(s).
| Time | Temp. | Humidity | Pressure | Rain* | Wind** | Luminosity | Snow |
|---|---|---|---|---|---|---|---|
| 1788543182 | 18.33° C | 100% | 1000.8 hPa | - | - | - | - |
| 1788540901 | 22.78° C | 69% | 999.5 hPa | - | - | - | - |
| 1788538619 | 22.78° C | 71% | 1000 hPa | - | - | - | - |
| 1788536334 | 22.78° C | 70% | 1001.1 hPa | - | - | - | - |
| 1788534053 | 22.22° C | 71% | 1001.9 hPa | - | - | - | - |
| 1788531771 | 21.67° C | 70% | 1002.6 hPa | - | - | - | - |
| 1788529490 | 21.67° C | 67% | 1003.3 hPa | - | - | - | - |
| 1788527208 | 20.56° C | 75% | 1004.6 hPa | - | - | - | - |
| 1788524926 | 20.56° C | 73% | 1005.7 hPa | - | - | - | - |
| 1788522645 | 20° C | 72% | 1007.1 hPa | - | - | - | - |
| 1788520363 | 20.56° C | 65% | 1007.9 hPa | - | - | - | - |
| 1788518082 | 20.56° C | 63% | 1008.4 hPa | - | - | - | - |
| 1788515800 | 20.56° C | 66% | 1008.7 hPa | - | - | - | - |
| 1788513518 | 20° C | 71% | 1009 hPa | - | - | - | - |
| 1788511237 | 18.89° C | 79% | 1009.5 hPa | - | - | - | - |
| 1788509867 | 20° C | 77% | 1009.3 hPa | - | - | - | - |
| 1788507585 | 18.33° C | 91% | 1009.4 hPa | - | - | - | - |
| 1788505303 | 17.78° C | 95% | 1009.5 hPa | - | - | - | - |
| 1788503022 | 17.78° C | 94% | 1009.5 hPa | - | - | - | - |
| 1788500740 | 17.22° C | 99% | 1009.9 hPa | - | - | - | - |
| 1788498459 | 17.22° C | 100% | 1009.9 hPa | - | - | - | - |
| 1788496177 | 16.67° C | 100% | 1010.1 hPa | - | - | - | - |
| 1788493895 | 16.67° C | 100% | 1010.1 hPa | - | - | - | - |
| 1788491614 | 17.22° C | 99% | 1010.3 hPa | - | - | - | - |
| 1788489332 | 17.22° C | 96% | 1010.4 hPa | - | - | - | - |
* Rain since midnight (hover to see other rain measurements)
** Current wind speed in m/s (hover to see current wind gust speed)